2024/01/18 00:00:00,23.8, 3.4
2024/01/18 00:10:00,23.8, 4.0
2024/01/18 00:20:00,23.8, 4.0
2024/01/18 00:30:00,23.8, 4.4
2024/01/18 00:40:00,23.8, 4.6
2024/01/18 00:50:00,23.7, 4.8
2024/01/18 01:00:00,23.7, 4.4
2024/01/18 01:10:00,23.7, 4.4
2024/01/18 01:20:00,23.7, 5.0
2024/01/18 01:30:00,23.7, 5.2
2024/01/18 01:40:00,23.6, 4.9
2024/01/18 01:50:00,23.5, 4.7
2024/01/18 02:00:00,23.5, 4.2
2024/01/18 02:10:00,23.4, 4.0
2024/01/18 02:20:00,23.1, 4.0
2024/01/18 02:30:00,23.0, 4.5
2024/01/18 02:40:00,22.8, 4.6
2024/01/18 02:50:00,22.6, 4.7
2024/01/18 03:00:00,22.6, 5.1
2024/01/18 03:10:00,22.6, 5.1
2024/01/18 03:20:00,22.5, 5.0
2024/01/18 03:30:00,22.5, 4.5
2024/01/18 03:40:00,22.5, 4.3
2024/01/18 03:50:00,22.4, 4.4
2024/01/18 04:00:00,22.3, 4.0
2024/01/18 04:10:00,22.3, 4.0
2024/01/18 04:20:00,22.4, 4.0
2024/01/18 04:30:00,22.4, 3.7
2024/01/18 04:40:00,22.3, 4.2
2024/01/18 04:50:00,22.2, 4.3
2024/01/18 05:00:00,22.1, 4.0
2024/01/18 05:10:00,22.0, 3.8
2024/01/18 05:20:00,22.0, 4.1
2024/01/18 05:30:00,21.9, 4.0
2024/01/18 05:40:00,21.9, 3.9
2024/01/18 05:50:00,21.8, 4.0
2024/01/18 06:00:00,21.7, 4.1
2024/01/18 06:10:00,21.7, 5.0
2024/01/18 06:20:00,21.5, 4.8
2024/01/18 06:30:00,21.5, 5.2
2024/01/18 06:40:00,21.4, 5.1
2024/01/18 06:50:00,21.2, 4.4
2024/01/18 07:00:00,21.0, 4.9
2024/01/18 07:10:00,20.6, 5.0
2024/01/18 07:20:00,20.6, 4.9
2024/01/18 07:30:00,20.6, 5.2
2024/01/18 07:40:00,20.5, 5.4
2024/01/18 07:50:00,20.4, 5.6
2024/01/18 08:00:00,20.4, 5.3
2024/01/18 08:10:00,20.2, 5.2
2024/01/18 08:20:00,20.2, 5.5
2024/01/18 08:30:00,20.2, 5.7
2024/01/18 08:40:00,20.0, 6.0
2024/01/18 08:50:00,19.9, 6.3
2024/01/18 09:00:00,19.8, 6.3
2024/01/18 09:10:00,19.6, 6.0
2024/01/18 09:20:00,19.5, 6.5
2024/01/18 09:30:00,19.2, 6.3
2024/01/18 09:40:00,19.1, 6.4
2024/01/18 09:50:00,19.0, 6.4
2024/01/18 10:00:00,18.9, 6.2
2024/01/18 10:10:00,18.7, 6.0
2024/01/18 10:20:00,18.3, 6.0
2024/01/18 10:30:00,18.0, 5.9
2024/01/18 10:40:00,18.0, 5.9
2024/01/18 10:50:00,17.0, 6.1
2024/01/18 11:00:00,16.7, 6.0
2024/01/18 11:10:00,16.6, 6.2
2024/01/18 11:20:00,16.6, 6.1
2024/01/18 11:30:00,16.6, 6.2
2024/01/18 11:40:00,16.7, 6.0
2024/01/18 11:50:00,16.7, 6.4
2024/01/18 12:00:00,16.7, 6.4
2024/01/18 12:10:00,16.7, 6.2
2024/01/18 12:20:00,16.6, 6.5
2024/01/18 12:30:00,16.6, 6.2
2024/01/18 12:40:00,16.6, 6.2
2024/01/18 12:50:00,16.1, 6.4
2024/01/18 13:00:00,15.4, 6.5
2024/01/18 13:10:00,15.3, 6.4
2024/01/18 13:20:00,15.1, 6.3
2024/01/18 13:30:00,15.2, 6.5
2024/01/18 13:40:00,15.2, 6.6
2024/01/18 13:50:00,15.1, 6.6
2024/01/18 14:00:00,15.2, 6.3
2024/01/18 14:10:00,15.1, 6.3
2024/01/18 14:20:00,15.1, 6.1
2024/01/18 14:30:00,15.1, 5.9
2024/01/18 14:40:00,15.1, 5.6
2024/01/18 14:50:00,15.1, 5.4
2024/01/18 15:00:00,15.1, 5.7
2024/01/18 15:10:00,15.2, 5.9
2024/01/18 15:20:00,15.2, 5.8
2024/01/18 15:30:00,15.2, 5.6
2024/01/18 15:40:00,15.2, 6.0
2024/01/18 15:50:00,15.1, 6.0
2024/01/18 16:00:00,15.1, 6.0
2024/01/18 16:10:00,15.1, 5.1
2024/01/18 16:20:00,14.9, 5.5
2024/01/18 16:30:00,14.8, 5.5
2024/01/18 16:40:00,14.7, 4.9
2024/01/18 16:50:00,14.6, 5.0
2024/01/18 17:00:00,14.6, 5.3
2024/01/18 17:10:00,14.6, 5.5
2024/01/18 17:20:00,14.4, 5.0
2024/01/18 17:30:00,14.5, 4.7
2024/01/18 17:40:00,14.4, 4.9
2024/01/18 17:50:00,14.4, 4.9
2024/01/18 18:00:00,14.0, 5.1
2024/01/18 18:10:00,13.8, 4.6
2024/01/18 18:20:00,13.7, 4.6
2024/01/18 18:30:00,13.6, 5.5
2024/01/18 18:40:00,13.5, 5.5
2024/01/18 18:50:00,13.6, 5.7
2024/01/18 19:00:00,13.4, 5.9
2024/01/18 19:10:00,13.1, 5.8
2024/01/18 19:20:00,13.1, 5.5
2024/01/18 19:30:00,13.1, 5.7
2024/01/18 19:40:00,12.5, 5.3
2024/01/18 19:50:00,12.4, 5.8
2024/01/18 20:00:00,12.3, 4.8
2024/01/18 20:10:00,12.2, 4.3
2024/01/18 20:20:00,12.1, 4.7
2024/01/18 20:30:00,12.1, 4.6
2024/01/18 20:40:00,12.0, 4.7
2024/01/18 20:50:00,12.0, 4.2
2024/01/18 21:00:00,11.8, 4.4
2024/01/18 21:10:00,11.5, 4.5
2024/01/18 21:20:00,11.4, 4.6
2024/01/18 21:30:00,11.2, 4.6
2024/01/18 21:40:00,10.9, 4.7
2024/01/18 21:50:00,10.8, 4.7
2024/01/18 22:00:00,10.4, 4.6
2024/01/18 22:10:00,10.4, 4.8
2024/01/18 22:20:00,10.3, 4.6
2024/01/18 22:30:00,10.4, 4.5
2024/01/18 22:40:00,10.3, 4.4
2024/01/18 22:50:00,10.4, 4.4
2024/01/18 23:00:00,10.4, 4.4
2024/01/18 23:10:00,10.4, 4.2
2024/01/18 23:20:00,10.5, 4.1
2024/01/18 23:30:00,10.4, 4.1
2024/01/18 23:40:00,10.4, 4.1
2024/01/18 23:50:00,10.4, 4.0
